Year,Month,Day,Hour,Minute,Value (Times are PST for temperature in C)
2009,06,05,00,00,18.70
2009,06,05,00,01,18.70
2009,06,05,00,02,18.70
2009,06,05,00,03,18.70
2009,06,05,00,04,18.70
2009,06,05,00,05,18.70
2009,06,05,00,06,18.70
2009,06,05,00,07,18.70
2009,06,05,00,08,18.70
2009,06,05,00,09,18.60
2009,06,05,00,10,18.60
2009,06,05,00,11,18.60
2009,06,05,00,12,18.60
2009,06,05,00,13,18.50
2009,06,05,00,14,18.50
2009,06,05,00,15,18.50
2009,06,05,00,16,18.50
2009,06,05,00,17,18.50
2009,06,05,00,18,18.50
2009,06,05,00,19,18.60
2009,06,05,00,20,18.60
2009,06,05,00,21,18.60
2009,06,05,00,22,18.60
2009,06,05,00,23,18.60
2009,06,05,00,24,18.70
2009,06,05,00,25,18.70
2009,06,05,00,26,18.60
2009,06,05,00,27,18.60
2009,06,05,00,28,18.60
2009,06,05,00,29,18.60
2009,06,05,00,30,18.60
2009,06,05,00,31,18.60
2009,06,05,00,32,18.60
2009,06,05,00,33,18.50
2009,06,05,00,34,18.50
2009,06,05,00,35,18.50
2009,06,05,00,36,18.50
2009,06,05,00,37,18.50
2009,06,05,00,38,18.50
2009,06,05,00,39,18.50
2009,06,05,00,40,18.40
2009,06,05,00,41,18.40
2009,06,05,00,42,18.40
2009,06,05,00,43,18.40
2009,06,05,00,44,18.40
2009,06,05,00,45,18.40
2009,06,05,00,46,18.40
2009,06,05,00,47,18.40
2009,06,05,00,48,18.40
2009,06,05,00,49,18.40
2009,06,05,00,50,18.40
2009,06,05,00,51,18.40
2009,06,05,00,52,18.40
2009,06,05,00,53,18.40
2009,06,05,00,54,18.30
2009,06,05,00,55,18.30
2009,06,05,00,56,18.30
2009,06,05,00,57,18.30
2009,06,05,00,58,18.30
2009,06,05,00,59,18.30
2009,06,05,01,00,18.30
2009,06,05,01,01,18.30
2009,06,05,01,02,18.30
2009,06,05,01,03,18.30
2009,06,05,01,04,18.30
2009,06,05,01,05,18.20
2009,06,05,01,06,18.20
2009,06,05,01,07,18.20
2009,06,05,01,08,18.20
2009,06,05,01,09,18.20
2009,06,05,01,10,18.20
2009,06,05,01,11,18.20
2009,06,05,01,12,18.20
2009,06,05,01,13,18.20
2009,06,05,01,14,18.20
2009,06,05,01,15,18.20
2009,06,05,01,16,18.20
2009,06,05,01,17,18.20
2009,06,05,01,18,18.20
2009,06,05,01,19,18.20
2009,06,05,01,20,18.20
2009,06,05,01,21,18.20
2009,06,05,01,22,18.30
2009,06,05,01,23,18.30
2009,06,05,01,24,18.40
2009,06,05,01,25,18.50
2009,06,05,01,26,18.50
2009,06,05,01,27,18.60
2009,06,05,01,28,18.60
2009,06,05,01,29,18.70
2009,06,05,01,30,18.80
2009,06,05,01,31,18.90
2009,06,05,01,32,19.10
2009,06,05,01,33,19.10
2009,06,05,01,34,19.20
2009,06,05,01,35,19.30
2009,06,05,01,36,19.30
2009,06,05,01,37,19.40
2009,06,05,01,38,19.40
2009,06,05,01,39,19.50
2009,06,05,01,40,19.50
2009,06,05,01,41,19.60
2009,06,05,01,42,19.80
2009,06,05,01,43,19.90
2009,06,05,01,44,19.90
2009,06,05,01,45,20.00
2009,06,05,01,46,20.20
2009,06,05,01,47,20.20
2009,06,05,01,48,20.20
2009,06,05,01,49,20.30
2009,06,05,01,50,20.30
2009,06,05,01,51,20.40
2009,06,05,01,52,20.40
2009,06,05,01,53,20.50
2009,06,05,01,54,20.50
2009,06,05,01,55,20.60
2009,06,05,01,56,20.60
2009,06,05,01,57,20.60
2009,06,05,01,58,20.60
2009,06,05,01,59,20.60
2009,06,05,02,00,20.50
2009,06,05,02,01,20.10
2009,06,05,02,02,19.80
2009,06,05,02,03,19.50
2009,06,05,02,04,19.30
2009,06,05,02,05,19.10
2009,06,05,02,06,18.90
2009,06,05,02,07,18.70
2009,06,05,02,08,18.50
2009,06,05,02,09,18.30
2009,06,05,02,10,18.20
2009,06,05,02,11,18.10
2009,06,05,02,12,18.00
2009,06,05,02,13,17.90
2009,06,05,02,14,17.90
2009,06,05,02,15,17.90
2009,06,05,02,16,17.80
2009,06,05,02,17,17.80
2009,06,05,02,18,17.70
2009,06,05,02,19,17.70
2009,06,05,02,20,17.60
2009,06,05,02,21,17.50
2009,06,05,02,22,17.40
2009,06,05,02,23,17.40
2009,06,05,02,24,17.30
2009,06,05,02,25,17.30
2009,06,05,02,26,17.30
2009,06,05,02,27,17.30
2009,06,05,02,28,17.10
2009,06,05,02,29,17.00
2009,06,05,02,30,16.80
2009,06,05,02,31,16.70
2009,06,05,02,32,16.70
2009,06,05,02,33,16.60
2009,06,05,02,34,16.60
2009,06,05,02,35,16.40
2009,06,05,02,36,16.40
2009,06,05,02,37,16.40
2009,06,05,02,38,16.30
2009,06,05,02,39,16.30
2009,06,05,02,40,16.30
2009,06,05,02,41,16.30
2009,06,05,02,42,16.20
2009,06,05,02,43,16.20
2009,06,05,02,44,16.10
2009,06,05,02,45,15.90
2009,06,05,02,46,15.70
2009,06,05,02,47,15.60
2009,06,05,02,48,15.40
2009,06,05,02,49,15.30
2009,06,05,02,50,15.20
2009,06,05,02,51,15.10
2009,06,05,02,52,15.00
2009,06,05,02,53,15.00
2009,06,05,02,54,14.90
2009,06,05,02,55,14.90
2009,06,05,02,56,14.90
2009,06,05,02,57,15.00
2009,06,05,02,58,15.00
2009,06,05,02,59,15.00
2009,06,05,03,00,15.00
2009,06,05,03,01,15.00
2009,06,05,03,02,14.90
2009,06,05,03,03,14.80
2009,06,05,03,04,14.60
2009,06,05,03,05,14.40
2009,06,05,03,06,14.30
2009,06,05,03,07,14.20
2009,06,05,03,08,14.10
2009,06,05,03,09,14.10
2009,06,05,03,10,14.10
2009,06,05,03,11,14.10
2009,06,05,03,12,14.10
2009,06,05,03,13,14.10
2009,06,05,03,14,14.10
2009,06,05,03,15,14.10
2009,06,05,03,16,14.10
2009,06,05,03,17,14.10
2009,06,05,03,18,14.20
2009,06,05,03,19,14.20
2009,06,05,03,20,14.20
2009,06,05,03,21,14.30
2009,06,05,03,22,14.40
2009,06,05,03,23,14.40
2009,06,05,03,24,14.40
2009,06,05,03,25,14.40
2009,06,05,03,26,14.40
2009,06,05,03,27,14.20
2009,06,05,03,28,14.00
2009,06,05,03,29,13.90
2009,06,05,03,30,13.70
2009,06,05,03,31,13.70
2009,06,05,03,32,13.60
2009,06,05,03,33,13.50
2009,06,05,03,34,13.50
2009,06,05,03,35,13.50
2009,06,05,03,36,13.50
2009,06,05,03,37,13.40
2009,06,05,03,38,13.40
2009,06,05,03,39,13.40
2009,06,05,03,40,13.40
2009,06,05,03,41,13.40
2009,06,05,03,42,13.40
2009,06,05,03,43,13.40
2009,06,05,03,44,13.30
2009,06,05,03,45,13.20
2009,06,05,03,46,13.10
2009,06,05,03,47,13.10
2009,06,05,03,48,13.00
2009,06,05,03,49,13.00
2009,06,05,03,50,13.00
2009,06,05,03,51,12.90
2009,06,05,03,52,12.90
2009,06,05,03,53,12.90
2009,06,05,03,54,12.80
2009,06,05,03,55,12.80
2009,06,05,03,56,12.70
2009,06,05,03,57,12.70
2009,06,05,03,58,12.60
2009,06,05,03,59,12.60
2009,06,05,04,00,12.60
2009,06,05,04,01,12.60
2009,06,05,04,02,12.60
2009,06,05,04,03,12.50
2009,06,05,04,04,12.50
2009,06,05,04,05,12.50
2009,06,05,04,06,12.50
2009,06,05,04,07,12.50
2009,06,05,04,08,12.40
2009,06,05,04,09,12.40
2009,06,05,04,10,12.40
2009,06,05,04,11,12.40
2009,06,05,04,12,12.40
2009,06,05,04,13,12.30
2009,06,05,04,14,12.30
2009,06,05,04,15,12.30
2009,06,05,04,16,12.30
2009,06,05,04,17,12.30
2009,06,05,04,18,12.30
2009,06,05,04,19,12.30
2009,06,05,04,20,12.30
2009,06,05,04,21,12.30
2009,06,05,04,22,12.30
2009,06,05,04,23,12.40
2009,06,05,04,24,12.40
2009,06,05,04,25,12.40
2009,06,05,04,26,12.40
2009,06,05,04,27,12.40
2009,06,05,04,28,12.40
2009,06,05,04,29,12.40
2009,06,05,04,30,12.30
2009,06,05,04,31,12.30
2009,06,05,04,32,12.30
2009,06,05,04,33,12.30
2009,06,05,04,34,12.30
2009,06,05,04,35,12.30
2009,06,05,04,36,12.30
2009,06,05,04,37,12.30
2009,06,05,04,38,12.30
2009,06,05,04,39,12.30
2009,06,05,04,40,12.30
2009,06,05,04,41,12.30
2009,06,05,04,42,12.30
2009,06,05,04,43,12.30
2009,06,05,04,44,12.30
2009,06,05,04,45,12.30
2009,06,05,04,46,12.30
2009,06,05,04,47,12.30
2009,06,05,04,48,12.30
2009,06,05,04,49,12.30
2009,06,05,04,50,12.30
2009,06,05,04,51,12.30
2009,06,05,04,52,12.30
2009,06,05,04,53,12.30
2009,06,05,04,54,12.30
2009,06,05,04,55,12.30
2009,06,05,04,56,12.30
2009,06,05,04,57,12.30
2009,06,05,04,58,12.30
2009,06,05,04,59,12.30
2009,06,05,05,00,12.30
2009,06,05,05,01,12.30
2009,06,05,05,02,12.30
2009,06,05,05,03,12.30
2009,06,05,05,04,12.30
2009,06,05,05,05,12.30
2009,06,05,05,06,12.40
2009,06,05,05,07,12.40
2009,06,05,05,08,12.50
2009,06,05,05,09,12.50
2009,06,05,05,10,12.50
2009,06,05,05,11,12.60
2009,06,05,05,12,12.60
2009,06,05,05,13,12.70
2009,06,05,05,14,12.80
2009,06,05,05,15,12.80
2009,06,05,05,16,12.90
2009,06,05,05,17,12.90
2009,06,05,05,18,13.00
2009,06,05,05,19,13.10
2009,06,05,05,20,13.20
2009,06,05,05,21,13.30
2009,06,05,05,22,13.30
2009,06,05,05,23,13.50
2009,06,05,05,24,13.50
2009,06,05,05,25,13.60
2009,06,05,05,26,13.70
2009,06,05,05,27,13.80
2009,06,05,05,28,13.90
2009,06,05,05,29,14.10
2009,06,05,05,30,14.20
2009,06,05,05,31,14.20
2009,06,05,05,32,14.30
2009,06,05,05,33,14.40
2009,06,05,05,34,14.50
2009,06,05,05,35,14.60
2009,06,05,05,36,14.70
2009,06,05,05,37,14.80
2009,06,05,05,38,14.80
2009,06,05,05,39,14.90
2009,06,05,05,40,15.00
2009,06,05,05,41,15.10
2009,06,05,05,42,15.20
2009,06,05,05,43,15.20
2009,06,05,05,44,15.30
2009,06,05,05,45,15.30
2009,06,05,05,46,15.30
2009,06,05,05,47,15.30
2009,06,05,05,48,15.30
2009,06,05,05,49,15.30
2009,06,05,05,50,15.30
2009,06,05,05,51,15.30
2009,06,05,05,52,15.30
2009,06,05,05,53,15.30
2009,06,05,05,54,15.30
2009,06,05,05,55,15.30
2009,06,05,05,56,15.40
2009,06,05,05,57,15.40
2009,06,05,05,58,15.50
2009,06,05,05,59,15.50
2009,06,05,06,00,15.50
2009,06,05,06,01,15.60
2009,06,05,06,02,15.60
2009,06,05,06,03,15.60
2009,06,05,06,04,15.60
2009,06,05,06,05,15.60
2009,06,05,06,06,15.60
2009,06,05,06,07,15.50
2009,06,05,06,08,15.50
2009,06,05,06,09,15.50
2009,06,05,06,10,15.40
2009,06,05,06,11,15.30
2009,06,05,06,12,15.30
2009,06,05,06,13,15.20
2009,06,05,06,14,15.20
2009,06,05,06,15,15.20
2009,06,05,06,16,15.20
2009,06,05,06,17,15.20
2009,06,05,06,18,15.20
2009,06,05,06,19,15.20
2009,06,05,06,20,15.20
2009,06,05,06,21,15.20
2009,06,05,06,22,15.30
2009,06,05,06,23,15.30
2009,06,05,06,24,15.30
2009,06,05,06,25,15.30
2009,06,05,06,26,15.30
2009,06,05,06,27,15.30
2009,06,05,06,28,15.30
2009,06,05,06,29,15.30
2009,06,05,06,30,15.30
2009,06,05,06,31,15.30
2009,06,05,06,32,15.30
2009,06,05,06,33,15.30
2009,06,05,06,34,15.30
2009,06,05,06,35,15.30
2009,06,05,06,36,15.40
2009,06,05,06,37,15.40
2009,06,05,06,38,15.40
2009,06,05,06,39,15.40
2009,06,05,06,40,15.40
2009,06,05,06,41,15.40
2009,06,05,06,42,15.40
2009,06,05,06,43,15.50
2009,06,05,06,44,15.50
2009,06,05,06,45,15.50
2009,06,05,06,46,15.50
2009,06,05,06,47,15.60
2009,06,05,06,48,15.60
2009,06,05,06,49,15.60
2009,06,05,06,50,15.60
2009,06,05,06,51,15.60
2009,06,05,06,52,15.60
2009,06,05,06,53,15.60
2009,06,05,06,54,15.60
2009,06,05,06,55,15.60
2009,06,05,06,56,15.60
2009,06,05,06,57,15.50
2009,06,05,06,58,15.50
2009,06,05,06,59,15.50
2009,06,05,07,00,15.50
2009,06,05,07,01,15.50
2009,06,05,07,02,15.40
2009,06,05,07,03,15.40
2009,06,05,07,04,15.30
2009,06,05,07,05,15.30
2009,06,05,07,06,15.20
2009,06,05,07,07,15.20
2009,06,05,07,08,15.10
2009,06,05,07,09,15.10
2009,06,05,07,10,15.00
2009,06,05,07,11,14.90
2009,06,05,07,12,14.90
2009,06,05,07,13,14.80
2009,06,05,07,14,14.80
2009,06,05,07,15,14.80
2009,06,05,07,16,14.70
2009,06,05,07,17,14.70
2009,06,05,07,18,14.70
2009,06,05,07,19,14.70
2009,06,05,07,20,14.70
2009,06,05,07,21,14.70
2009,06,05,07,22,14.70
2009,06,05,07,23,14.70
2009,06,05,07,24,14.80
2009,06,05,07,25,14.80
2009,06,05,07,26,14.80
2009,06,05,07,27,14.90
2009,06,05,07,28,14.90
2009,06,05,07,29,15.00
2009,06,05,07,30,15.10
2009,06,05,07,31,15.10
2009,06,05,07,32,15.20
2009,06,05,07,33,15.30
2009,06,05,07,34,15.30
2009,06,05,07,35,15.30
2009,06,05,07,36,15.30
2009,06,05,07,37,15.30
2009,06,05,07,38,15.30
2009,06,05,07,39,15.30
2009,06,05,07,40,15.30
2009,06,05,07,41,15.30
2009,06,05,07,42,15.30
2009,06,05,07,43,15.30
2009,06,05,07,44,15.20
2009,06,05,07,45,15.10
2009,06,05,07,46,15.10
2009,06,05,07,47,15.00
2009,06,05,07,48,15.00
2009,06,05,07,49,15.00
2009,06,05,07,50,15.00
2009,06,05,07,51,15.00
2009,06,05,07,52,15.00
2009,06,05,07,53,15.10
2009,06,05,07,54,15.10
2009,06,05,07,55,15.10
2009,06,05,07,56,15.10
2009,06,05,07,57,15.10
2009,06,05,07,58,15.20
2009,06,05,07,59,15.20
2009,06,05,08,00,15.30
2009,06,05,08,01,15.30
2009,06,05,08,02,15.30
2009,06,05,08,03,15.30
2009,06,05,08,04,15.30
2009,06,05,08,05,15.30
2009,06,05,08,06,15.30
2009,06,05,08,07,15.30
2009,06,05,08,08,15.30
2009,06,05,08,09,15.30
2009,06,05,08,10,15.40
2009,06,05,08,11,15.40
2009,06,05,08,12,15.40
2009,06,05,08,13,15.40
2009,06,05,08,14,15.50
2009,06,05,08,15,15.50
2009,06,05,08,16,15.60
2009,06,05,08,17,15.60
2009,06,05,08,18,15.70
2009,06,05,08,19,15.70
2009,06,05,08,20,15.80
2009,06,05,08,21,15.80
2009,06,05,08,22,15.80
2009,06,05,08,23,15.80
2009,06,05,08,24,15.80
2009,06,05,08,25,15.80
2009,06,05,08,26,15.80
2009,06,05,08,27,15.80
2009,06,05,08,28,15.80
2009,06,05,08,29,15.80
2009,06,05,08,30,15.80
2009,06,05,08,31,15.90
2009,06,05,08,32,15.90
2009,06,05,08,33,15.90
2009,06,05,08,34,15.90
2009,06,05,08,35,15.90
2009,06,05,08,36,15.90
2009,06,05,08,37,15.90
2009,06,05,08,38,15.90
2009,06,05,08,39,15.90
2009,06,05,08,40,15.90
2009,06,05,08,41,15.80
2009,06,05,08,42,15.80
2009,06,05,08,43,15.80
2009,06,05,08,44,15.80
2009,06,05,08,45,15.80
2009,06,05,08,46,15.80
2009,06,05,08,47,15.90
2009,06,05,08,48,16.00
2009,06,05,08,49,16.10
2009,06,05,08,50,16.10
2009,06,05,08,51,16.10
2009,06,05,08,52,16.20
2009,06,05,08,53,16.20
2009,06,05,08,54,16.20
2009,06,05,08,55,16.20
2009,06,05,08,56,16.20
2009,06,05,08,57,16.30
2009,06,05,08,58,16.30
2009,06,05,08,59,16.30
2009,06,05,09,00,16.30
2009,06,05,09,01,16.40
2009,06,05,09,02,16.40
2009,06,05,09,03,16.40
2009,06,05,09,04,16.50
2009,06,05,09,05,16.60
2009,06,05,09,06,16.70
2009,06,05,09,07,16.70
2009,06,05,09,08,16.70
2009,06,05,09,09,16.70
2009,06,05,09,10,16.60
2009,06,05,09,11,16.60
2009,06,05,09,12,16.60
2009,06,05,09,13,16.60
2009,06,05,09,14,16.60
2009,06,05,09,15,16.50
2009,06,05,09,16,16.40
2009,06,05,09,17,16.30
2009,06,05,09,18,16.30
2009,06,05,09,19,16.30
2009,06,05,09,20,16.20
2009,06,05,09,21,16.20
2009,06,05,09,22,16.20
2009,06,05,09,23,16.30
2009,06,05,09,24,16.30
2009,06,05,09,25,16.40
2009,06,05,09,26,16.40
2009,06,05,09,27,16.40
2009,06,05,09,28,16.30
2009,06,05,09,29,16.30
2009,06,05,09,30,16.30
2009,06,05,09,31,16.30
2009,06,05,09,32,16.30
2009,06,05,09,33,16.40
2009,06,05,09,34,16.40
2009,06,05,09,35,16.40
2009,06,05,09,36,16.30
2009,06,05,09,37,16.30
2009,06,05,09,38,16.30
2009,06,05,09,39,16.30
2009,06,05,09,40,16.30
2009,06,05,09,41,16.30
2009,06,05,09,42,16.30
2009,06,05,09,43,16.30
2009,06,05,09,44,16.20
2009,06,05,09,45,16.20
2009,06,05,09,46,16.10
2009,06,05,09,47,16.10
2009,06,05,09,48,16.10
2009,06,05,09,49,16.10
2009,06,05,09,50,16.30
2009,06,05,09,51,16.40
2009,06,05,09,52,16.40
2009,06,05,09,53,16.60
2009,06,05,09,54,16.70
2009,06,05,09,55,16.70
2009,06,05,09,56,16.70
2009,06,05,09,57,16.60
2009,06,05,09,58,16.50
2009,06,05,09,59,16.40
2009,06,05,10,00,16.50
2009,06,05,10,01,16.60
2009,06,05,10,02,16.70
2009,06,05,10,03,16.70
2009,06,05,10,04,16.90
2009,06,05,10,05,17.00
2009,06,05,10,06,17.10
2009,06,05,10,07,17.10
2009,06,05,10,08,17.20
2009,06,05,10,09,17.10
2009,06,05,10,10,17.10
2009,06,05,10,11,17.10
2009,06,05,10,12,17.10
2009,06,05,10,13,17.00
2009,06,05,10,14,16.90
2009,06,05,10,15,17.00
2009,06,05,10,16,16.90
2009,06,05,10,17,16.90
2009,06,05,10,18,17.00
2009,06,05,10,19,16.90
2009,06,05,10,20,16.90
2009,06,05,10,21,16.90
2009,06,05,10,22,16.90
2009,06,05,10,23,16.90
2009,06,05,10,24,17.00
2009,06,05,10,25,17.00
2009,06,05,10,26,17.00
2009,06,05,10,27,17.00
2009,06,05,10,28,17.00
2009,06,05,10,29,17.00
2009,06,05,10,30,16.90
2009,06,05,10,31,17.00
2009,06,05,10,32,17.00
2009,06,05,10,33,17.10
2009,06,05,10,34,17.20
2009,06,05,10,35,17.10
2009,06,05,10,36,17.00
2009,06,05,10,37,17.00
2009,06,05,10,38,16.90
2009,06,05,10,39,16.80
2009,06,05,10,40,16.70
2009,06,05,10,41,16.70
2009,06,05,10,42,16.70
2009,06,05,10,43,16.70
2009,06,05,10,44,16.60
2009,06,05,10,45,16.50
2009,06,05,10,46,16.40
2009,06,05,10,47,16.40
2009,06,05,10,48,16.40
2009,06,05,10,49,16.30
2009,06,05,10,50,16.20
2009,06,05,10,51,16.10
2009,06,05,10,52,16.00
2009,06,05,10,53,15.90
2009,06,05,10,54,15.80
2009,06,05,10,55,15.80
2009,06,05,10,56,15.70
2009,06,05,10,57,15.70
2009,06,05,10,58,15.60
2009,06,05,10,59,15.50
2009,06,05,11,00,15.50
2009,06,05,11,01,15.50
2009,06,05,11,02,15.50
2009,06,05,11,03,15.50
2009,06,05,11,04,15.40
2009,06,05,11,05,15.30
2009,06,05,11,06,15.10
2009,06,05,11,07,15.10
2009,06,05,11,08,15.00
2009,06,05,11,09,14.90
2009,06,05,11,10,14.80
2009,06,05,11,11,14.80
2009,06,05,11,12,14.80
2009,06,05,11,13,14.90
2009,06,05,11,14,15.00
2009,06,05,11,15,15.00
2009,06,05,11,16,15.00
2009,06,05,11,17,15.00
2009,06,05,11,18,15.00
2009,06,05,11,19,14.90
2009,06,05,11,20,14.80
2009,06,05,11,21,14.80
2009,06,05,11,22,14.70
2009,06,05,11,23,14.70
2009,06,05,11,24,14.80
2009,06,05,11,25,14.90
2009,06,05,11,26,15.00
2009,06,05,11,27,15.00
2009,06,05,11,28,15.00
2009,06,05,11,29,15.00
2009,06,05,11,30,15.00
2009,06,05,11,31,14.90
2009,06,05,11,32,14.80
2009,06,05,11,33,14.80
2009,06,05,11,34,14.80
2009,06,05,11,35,14.80
2009,06,05,11,36,14.70
2009,06,05,11,37,14.60
2009,06,05,11,38,14.60
2009,06,05,11,39,14.60
2009,06,05,11,40,14.50
2009,06,05,11,41,14.50
2009,06,05,11,42,14.50
2009,06,05,11,43,14.50
2009,06,05,11,44,14.50
2009,06,05,11,45,14.60
2009,06,05,11,46,14.60
2009,06,05,11,47,14.50
2009,06,05,11,48,14.60
2009,06,05,11,49,14.60
2009,06,05,11,50,14.70
2009,06,05,11,51,14.80
2009,06,05,11,52,14.90
2009,06,05,11,53,15.10
2009,06,05,11,54,15.20
2009,06,05,11,55,15.30
2009,06,05,11,56,15.50
2009,06,05,11,57,15.50
2009,06,05,11,58,15.40
2009,06,05,11,59,15.50
2009,06,05,12,00,15.50
2009,06,05,12,01,15.60
2009,06,05,12,02,15.70
2009,06,05,12,03,15.80
2009,06,05,12,04,15.80
2009,06,05,12,05,15.80
2009,06,05,12,06,15.80
2009,06,05,12,07,15.80
2009,06,05,12,08,15.80
2009,06,05,12,09,15.90
2009,06,05,12,10,15.90
2009,06,05,12,11,15.90
2009,06,05,12,12,15.90
2009,06,05,12,13,15.80
2009,06,05,12,14,15.90
2009,06,05,12,15,15.90
2009,06,05,12,16,15.90
2009,06,05,12,17,15.90
2009,06,05,12,18,15.90
2009,06,05,12,19,16.00
2009,06,05,12,20,16.10
2009,06,05,12,21,16.10
2009,06,05,12,22,16.10
2009,06,05,12,23,16.20
2009,06,05,12,24,16.30
2009,06,05,12,25,16.40
2009,06,05,12,26,16.60
2009,06,05,12,27,16.70
2009,06,05,12,28,16.90
2009,06,05,12,29,16.90
2009,06,05,12,30,17.00
2009,06,05,12,31,17.00
2009,06,05,12,32,16.90
2009,06,05,12,33,16.90
2009,06,05,12,34,16.70
2009,06,05,12,35,16.70
2009,06,05,12,36,16.70
2009,06,05,12,37,16.70
2009,06,05,12,38,16.70
2009,06,05,12,39,16.70
2009,06,05,12,40,16.70
2009,06,05,12,41,16.70
2009,06,05,12,42,16.70
2009,06,05,12,43,16.70
2009,06,05,12,44,16.70
2009,06,05,12,45,16.70
2009,06,05,12,46,16.70
2009,06,05,12,47,16.70
2009,06,05,12,48,16.80
2009,06,05,12,49,16.90
2009,06,05,12,50,16.90
2009,06,05,12,51,17.00
2009,06,05,12,52,17.10
2009,06,05,12,53,17.10
2009,06,05,12,54,17.30
2009,06,05,12,55,17.30
2009,06,05,12,56,17.20
2009,06,05,12,57,17.10
2009,06,05,12,58,17.10
2009,06,05,12,59,17.10
2009,06,05,13,00,17.20
2009,06,05,13,01,17.20
2009,06,05,13,02,17.20
2009,06,05,13,03,17.20
2009,06,05,13,04,17.20
2009,06,05,13,05,17.20
2009,06,05,13,06,17.30
2009,06,05,13,07,17.30
2009,06,05,13,08,17.20
2009,06,05,13,09,17.20
2009,06,05,13,10,17.20
2009,06,05,13,11,17.20
2009,06,05,13,12,17.10
2009,06,05,13,13,17.00
2009,06,05,13,14,16.90
2009,06,05,13,15,17.00
2009,06,05,13,16,17.00
2009,06,05,13,17,17.00
2009,06,05,13,18,17.10
2009,06,05,13,19,17.20
2009,06,05,13,20,17.30
2009,06,05,13,21,17.40
2009,06,05,13,22,17.40
2009,06,05,13,23,17.50
2009,06,05,13,24,17.40
2009,06,05,13,25,17.40
2009,06,05,13,26,17.30
2009,06,05,13,27,17.20
2009,06,05,13,28,17.20
2009,06,05,13,29,17.10
2009,06,05,13,30,17.20
2009,06,05,13,31,17.30
2009,06,05,13,32,17.30
2009,06,05,13,33,17.30
2009,06,05,13,34,17.40
2009,06,05,13,35,17.40
2009,06,05,13,36,17.50
2009,06,05,13,37,17.50
2009,06,05,13,38,17.60
2009,06,05,13,39,17.70
2009,06,05,13,40,17.60
2009,06,05,13,41,17.60
2009,06,05,13,42,17.60
2009,06,05,13,43,17.60
2009,06,05,13,44,17.50
2009,06,05,13,45,17.40
2009,06,05,13,46,17.30
2009,06,05,13,47,17.30
2009,06,05,13,48,17.10
2009,06,05,13,49,16.80
2009,06,05,13,50,16.60
2009,06,05,13,51,16.40
2009,06,05,13,52,16.20
2009,06,05,13,53,16.20
2009,06,05,13,54,16.20
2009,06,05,13,55,16.30
2009,06,05,13,56,16.40
2009,06,05,13,57,16.40
2009,06,05,13,58,16.30
2009,06,05,13,59,16.20
2009,06,05,14,00,16.20
2009,06,05,14,01,16.00
2009,06,05,14,02,15.80
2009,06,05,14,03,15.70
2009,06,05,14,04,15.70
2009,06,05,14,05,15.70
2009,06,05,14,06,15.60
2009,06,05,14,07,15.50
2009,06,05,14,08,15.30
2009,06,05,14,09,15.30
2009,06,05,14,10,15.40
2009,06,05,14,11,15.40
2009,06,05,14,12,15.40
2009,06,05,14,13,15.40
2009,06,05,14,14,15.40
2009,06,05,14,15,15.40
2009,06,05,14,16,15.40
2009,06,05,14,17,15.30
2009,06,05,14,18,15.40
2009,06,05,14,19,15.40
2009,06,05,14,20,15.40
2009,06,05,14,21,15.50
2009,06,05,14,22,15.50
2009,06,05,14,23,15.60
2009,06,05,14,24,15.60
2009,06,05,14,25,15.70
2009,06,05,14,26,15.60
2009,06,05,14,27,15.60
2009,06,05,14,28,15.60
2009,06,05,14,29,15.70
2009,06,05,14,30,15.80
2009,06,05,14,31,15.80
2009,06,05,14,32,15.80
2009,06,05,14,33,15.80
2009,06,05,14,34,15.80
2009,06,05,14,35,15.70
2009,06,05,14,36,15.50
2009,06,05,14,37,15.50
2009,06,05,14,38,15.50
2009,06,05,14,39,15.50
2009,06,05,14,40,15.50
2009,06,05,14,41,15.50
2009,06,05,14,42,15.50
2009,06,05,14,43,15.50
2009,06,05,14,44,15.50
2009,06,05,14,45,15.50
2009,06,05,14,46,15.30
2009,06,05,14,47,15.30
2009,06,05,14,48,15.20
2009,06,05,14,49,15.30
2009,06,05,14,50,15.40
2009,06,05,14,51,15.40
2009,06,05,14,52,15.40
2009,06,05,14,53,15.30
2009,06,05,14,54,15.30
2009,06,05,14,55,15.30
2009,06,05,14,56,15.30
2009,06,05,14,57,15.20
2009,06,05,14,58,15.10
2009,06,05,14,59,15.10
2009,06,05,15,00,15.30
2009,06,05,15,01,15.40
2009,06,05,15,02,15.50
2009,06,05,15,03,15.50
2009,06,05,15,04,15.50
2009,06,05,15,05,15.50
2009,06,05,15,06,15.60
2009,06,05,15,07,15.70
2009,06,05,15,08,15.70
2009,06,05,15,09,15.70
2009,06,05,15,10,15.80
2009,06,05,15,11,15.80
2009,06,05,15,12,15.90
2009,06,05,15,13,16.10
2009,06,05,15,14,16.30
2009,06,05,15,15,16.40
2009,06,05,15,16,16.60
2009,06,05,15,17,16.70
2009,06,05,15,18,16.70
2009,06,05,15,19,16.70
2009,06,05,15,20,16.70
2009,06,05,15,21,16.60
2009,06,05,15,22,16.60
2009,06,05,15,23,16.50
2009,06,05,15,24,16.40
2009,06,05,15,25,16.30
2009,06,05,15,26,16.40
2009,06,05,15,27,16.40
2009,06,05,15,28,16.50
2009,06,05,15,29,16.60
2009,06,05,15,30,16.70
2009,06,05,15,31,16.70
2009,06,05,15,32,16.70
2009,06,05,15,33,16.70
2009,06,05,15,34,16.90
2009,06,05,15,35,17.00
2009,06,05,15,36,17.10
2009,06,05,15,37,17.20
2009,06,05,15,38,17.30
2009,06,05,15,39,17.30
2009,06,05,15,40,17.30
2009,06,05,15,41,17.30
2009,06,05,15,42,17.40
2009,06,05,15,43,17.40
2009,06,05,15,44,17.50
2009,06,05,15,45,17.60
2009,06,05,15,46,17.80
2009,06,05,15,47,17.90
2009,06,05,15,48,17.90
2009,06,05,15,49,17.90
2009,06,05,15,50,17.90
2009,06,05,15,51,17.80
2009,06,05,15,52,17.70
2009,06,05,15,53,17.70
2009,06,05,15,54,17.80
2009,06,05,15,55,17.90
2009,06,05,15,56,18.00
2009,06,05,15,57,18.10
2009,06,05,15,58,18.20
2009,06,05,15,59,18.20
2009,06,05,16,00,18.20
2009,06,05,16,01,18.20
2009,06,05,16,02,18.30
2009,06,05,16,03,18.40
2009,06,05,16,04,18.50
2009,06,05,16,05,18.60
2009,06,05,16,06,18.70
2009,06,05,16,07,18.70
2009,06,05,16,08,18.70
2009,06,05,16,09,18.70
2009,06,05,16,10,18.80
2009,06,05,16,11,18.90
2009,06,05,16,12,18.90
2009,06,05,16,13,19.00
2009,06,05,16,14,19.10
2009,06,05,16,15,19.10
2009,06,05,16,16,19.20
2009,06,05,16,17,19.20
2009,06,05,16,18,19.10
2009,06,05,16,19,19.10
2009,06,05,16,20,19.10
2009,06,05,16,21,19.10
2009,06,05,16,22,19.10
2009,06,05,16,23,19.20
2009,06,05,16,24,19.30
2009,06,05,16,25,19.30
2009,06,05,16,26,19.30
2009,06,05,16,27,19.20
2009,06,05,16,28,19.20
2009,06,05,16,29,19.10
2009,06,05,16,30,19.10
2009,06,05,16,31,19.10
2009,06,05,16,32,19.00
2009,06,05,16,33,19.00
2009,06,05,16,34,19.10
2009,06,05,16,35,19.20
2009,06,05,16,36,19.20
2009,06,05,16,37,19.20
2009,06,05,16,38,19.20
2009,06,05,16,39,19.30
2009,06,05,16,40,19.20
2009,06,05,16,41,19.30
2009,06,05,16,42,19.30
2009,06,05,16,43,19.40
2009,06,05,16,44,19.40
2009,06,05,16,45,19.50
2009,06,05,16,46,19.60
2009,06,05,16,47,19.70
2009,06,05,16,48,19.80
2009,06,05,16,49,19.80
2009,06,05,16,50,19.90
2009,06,05,16,51,19.90
2009,06,05,16,52,20.10
2009,06,05,16,53,20.10
2009,06,05,16,54,20.20
2009,06,05,16,55,20.20
2009,06,05,16,56,20.20
2009,06,05,16,57,20.20
2009,06,05,16,58,20.20
2009,06,05,16,59,20.30
2009,06,05,17,00,20.30
2009,06,05,17,01,20.20
2009,06,05,17,02,20.20
2009,06,05,17,03,20.20
2009,06,05,17,04,20.20
2009,06,05,17,05,20.20
2009,06,05,17,06,20.20
2009,06,05,17,07,20.20
2009,06,05,17,08,20.20
2009,06,05,17,09,20.20
2009,06,05,17,10,20.20
2009,06,05,17,11,20.20
2009,06,05,17,12,20.20
2009,06,05,17,13,20.10
2009,06,05,17,14,20.10
2009,06,05,17,15,20.10
2009,06,05,17,16,20.10
2009,06,05,17,17,20.10
2009,06,05,17,18,20.10
2009,06,05,17,19,20.20